Dewpoint
52 51 51 50 49 48 48 48 47 47 46 46 45 44 43 42 41 41 40 39 39 39 40 40 40 41 41 43 41 41 41 42 42 41 41 40 40 39 39 39 38 39 41 39 40 39 39 37 36 37 37 35 36 36 35 36 36 36 37 36 35 35 35 34 32 31 33 35 34 33 34 35 33 33 32 33 34 34 35 35 35 36 35 34 35
51 50 50 49 48 47 47 47 47 47 46 45 44 42 41 41 40 39 39 39 39 39 39 40 40 40 39 39 40 40 41 41 41 40 40 40 40 40 39 38 38 38 38 38 39 40 38 36 36 37 39 35 36 34 34 35 35 35 34 35 34 34 35 33 32 32 31 33 32 32 32 34 32 32 33 34 33 35 34 33 34 32 33 33 33
50 50 49 48 48 47 47 47 46 46 45 44 42 41 41 40 40 38 38 38 40 38 39 39 39 39 38 39 39 39 40 40 41 40 40 39 39 39 40 38 38 38 38 38 38 39 38 39 36 37 39 35 35 35 36 35 35 34 35 34 34 34 34 34 33 32 32 32 33 31 32 32 33 31 31 32 33 32 31 33 33 34 34 34 34
50 49 49 48 47 47 47 47 46 45 44 43 41 41 40 39 40 38 38 38 37 39 38 38 38 38 38 38 38 38 39 40 40 40 39 39 39 39 38 38 38 38 38 38 38 38 38 37 36 38 38 35 34 34 35 35 34 35 35 34 35 35 35 35 35 33 32 31 32 30 31 32 32 30 30 31 31 32 32 30 32 33 34 33 34
49 49 48 48 47 47 47 46 45 44 43 42 42 40 39 39 39 37 37 37 37 38 39 38 37 37 37 37 37 37 38 39 39 40 40 40 39 39 38 38 38 38 38 38 41 38 39 35 35 38 37 35 35 34 34 34 35 35 34 34 34 35 35 35 34 34 33 32 32 32 32 31 31 31 30 28 30 30 31 31 31 30 32 34 34
49 49 48 47 47 46 46 45 44 43 42 41 41 41 39 38 38 38 36 36 36 36 37 37 38 36 36 36 36 36 37 38 39 39 40 40 40 40 40 39 39 38 39 40 40 39 39 37 38 38 36 35 34 35 35 35 36 36 36 35 34 35 35 35 35 34 33 32 32 31 32 31 30 31 28 29 30 29 29 30 31 31 32 32 33
49 49 48 47 46 45 45 44 44 43 41 40 40 39 38 37 36 36 37 36 36 36 36 37 38 36 36 36 36 36 36 37 37 38 39 39 39 39 40 39 39 40 39 40 39 39 38 38 40 38 36 35 35 36 36 37 37 37 37 36 35 35 35 34 34 33 33 32 31 31 30 30 31 29 28 29 30 29 29 29 29 30 31 31 31
49 48 48 47 45 45 45 44 43 42 41 40 39 38 37 37 37 37 36 35 35 35 36 36 38 36 37 37 37 39 37 36 37 37 38 39 40 39 39 40 39 39 39 39 40 39 39 38 38 38 37 36 37 39 39 39 39 37 37 36 36 36 35 35 34 32 32 31 30 29 28 28 29 30 30 31 30 29 30 29 28 29 29 31 32
48 48 47 46 45 45 45 44 43 43 41 40 39 38 37 37 36 36 36 36 37 35 35 35 35 35 35 36 36 37 38 38 38 37 38 38 39 40 40 41 40 39 39 38 38 38 39 39 39 38 44 39 41 41 41 40 38 37 37 37 37 36 35 34 34 32 31 30 29 29 28 28 28 29 29 29 28 28 30 31 29 30 29 29 30
48 47 47 47 46 44 44 44 43 41 40 39 38 37 36 36 35 35 35 35 35 36 34 34 34 34 34 35 36 37 38 39 42 42 40 39 39 40 40 40 40 40 41 39 36 38 38 38 42 44 43 42 41 40 38 38 38 38 37 37 37 36 35 34 33 32 31 30 28 28 28 28 28 30 29 30 30 31 30 30 29 29 30 30 31
47 46 46 46 46 45 44 43 42 41 41 39 38 37 36 36 35 35 35 35 35 36 33 33 33 33 34 35 36 37 38 40 40 39 39 40 39 38 38 38 39 39 40 38 37 39 38 38 38 40 41 38 41 39 37 37 37 37 37 38 38 38 36 34 33 33 31 30 29 29 29 29 29 29 30 29 31 30 30 30 29 29 29 29 29
46 46 46 45 45 44 45 43 42 42 42 40 39 38 36 34 34 35 35 35 36 34 33 32 33 34 34 35 36 37 38 39 38 38 38 38 40 40 38 38 38 38 38 37 37 39 38 37 37 37 37 38 40 37 38 37 37 36 36 37 36 36 36 36 34 32 32 31 30 30 29 29 29 30 30 30 30 30 31 30 30 29 29 30 31
46 45 45 44 44 44 43 42 41 41 42 41 39 37 35 34 34 34 34 35 33 32 32 32 32 33 34 34 35 37 37 38 37 37 37 37 37 37 37 37 38 37 37 38 37 38 38 38 38 37 35 39 38 36 36 36 37 37 37 37 35 35 34 33 34 35 35 33 31 30 30 30 30 30 31 32 32 31 31 29 30 30 30 31 32
45 44 44 44 43 43 43 42 42 42 42 40 37 35 34 33 33 33 34 33 31 31 32 32 32 33 34 34 35 35 36 38 37 37 36 36 36 37 35 36 36 36 37 38 37 36 37 37 36 36 37 37 37 37 37 36 35 35 35 34 33 34 34 34 33 34 34 33 32 31 31 32 31 32 33 33 32 31 30 30 30 30 32 33 34
44 44 43 43 43 42 42 42 42 42 40 38 36 34 32 31 32 33 31 30 30 30 30 31 32 35 34 33 34 35 37 37 36 36 36 36 35 35 35 36 36 35 36 36 37 37 37 37 37 37 37 37 38 37 37 36 35 35 34 33 33 32 33 33 33 33 33 34 33 32 32 33 33 33 33 33 33 33 33 32 32 33 34 35 35
46 44 43 42 42 42 42 42 42 41 39 36 34 31 30 30 31 32 31 31 31 32 32 33 33 32 33 33 33 33 35 36 36 36 37 36 36 36 35 34 35 35 35 35 35 36 36 36 37 38 38 37 37 36 36 36 36 34 33 33 32 32 32 34 33 33 35 34 34 33 33 34 33 35 35 34 34 34 33 33 35 35 35 34 34
46 45 44 42 42 42 42 43 43 40 38 35 31 29 29 30 30 32 30 31 31 31 32 32 32 31 33 32 32 32 33 36 36 36 36 35 34 33 34 34 34 34 34 35 35 36 35 37 39 39 37 35 36 35 35 36 36 34 33 33 32 31 30 30 33 32 33 33 33 33 33 33 33 33 33 33 33 34 33 35 35 35 34 32 33
45 45 43 42 42 43 43 43 41 40 38 34 30 29 29 29 31 32 30 31 31 32 33 32 32 33 32 31 31 31 31 35 36 36 36 36 35 33 33 32 32 33 33 34 35 35 35 37 38 37 36 35 36 35 35 37 35 34 33 32 30 29 29 30 31 32 33 33 33 32 32 32 33 33 33 33 33 34 33 34 35 36 34 34 32
44 43 43 43 43 44 44 43 41 41 39 35 31 29 29 30 32 33 32 32 33 34 38 32 33 33 32 32 37 32 32 36 35 35 36 37 37 33 32 31 32 31 32 34 34 33 32 34 35 36 35 36 35 35 35 36 36 34 33 32 30 29 28 31 32 31 32 31 31 32 32 32 33 33 33 33 33 35 35 35 37 36 33 34 34
44 43 43 43 43 43 43 42 42 41 39 36 33 31 32 33 34 33 34 34 35 36 36 34 33 34 35 36 38 34 32 33 39 35 35 36 36 35 33 32 33 32 31 36 31 31 32 32 35 34 34 34 34 34 35 35 35 35 34 32 31 30 31 32 33 32 32 30 31 31 31 32 32 31 31 31 33 35 34 36 37 37 35 34 34
46 44 43 43 43 42 42 42 41 41 40 38 35 35 34 34 34 34 35 36 36 36 36 35 35 36 36 35 36 34 34 32 37 34 35 35 36 35 32 32 31 31 31 33 30 30 30 31 32 34 34 34 35 35 35 35 35 37 34 32 32 33 34 32 32 32 31 31 31 30 30 30 30 30 30 30 30 31 32 34 38 38 37 35 33
45 44 42 42 42 42 42 41 41 41 40 39 38 36 36 35 35 35 36 37 37 37 36 37 36 36 36 37 37 35 37 40 32 36 34 35 34 36 34 35 34 33 32 30 30 30 31 31 32 34 34 34 34 35 35 35 34 36 34 32 32 32 33 33 32 30 29 29 28 28 29 28 28 28 29 29 29 30 30 31 35 37 39 39 36
42 42 42 41 41 41 41 41 41 41 40 40 38 37 37 36 37 37 37 37 37 36 36 36 36 36 36 37 38 36 35 38 38 37 35 34 34 34 35 34 34 38 30 30 30 30 31 32 33 35 34 34 34 35 35 34 34 33 32 32 32 32 33 30 30 29 29 28 29 28 28 28 28 27 28 28 29 30 29 30 33 36 38 39 39
42 41 41 41 41 41 41 41 41 41 40 40 39 37 37 37 37 37 36 37 36 36 36 36 36 35 36 36 37 37 37 35 37 38 37 34 35 34 34 34 34 36 36 32 32 32 32 32 34 33 34 34 34 34 34 34 33 32 32 32 32 33 30 29 28 29 29 28 28 28 28 28 28 27 28 29 29 30 29 30 32 35 37 38 38
41 41 41 40 40 40 40 40 40 40 40 39 38 37 37 37 36 36 37 36 36 36 35 35 35 35 35 35 36 37 37 37 36 37 37 35 34 34 34 34 34 34 35 35 36 36 34 34 34 34 34 34 34 34 33 33 32 32 32 32 34 29 29 27 28 29 27 27 27 28 27 28 28 29 30 30 31 30 29 30 32 35 37 38 38
41 40 40 40 40 39 39 39 39 39 39 39 39 38 37 37 36 36 36 36 36 35 35 35 35 34 34 34 35 35 36 36 36 35 36 37 35 34 34 34 35 35 36 35 34 34 34 34 34 34 34 34 35 34 33 33 33 33 32 33 31 29 28 27 27 27 27 27 28 27 27 27 28 29 30 30 29 28 28 29 31 33 35 36 36
40 40 40 39 39 39 39 39 39 39 39 39 39 38 38 37 37 37 35 37 34 34 34 34 34 34 34 34 35 36 36 35 35 34 32 32 33 35 35 35 36 35 36 35 34 34 34 35 34 33 33 34 34 33 32 32 32 31 30 29 30 29 29 28 28 28 27 27 27 27 27 28 29 29 28 28 28 28 28 29 31 32 33 35 34
39 39 38 38 38 38 38 36 38 38 38 38 38 37 37 37 37 37 35 34 33 33 33 34 34 34 34 35 35 35 35 35 34 33 32 31 31 30 30 34 32 31 31 32 33 35 35 34 33 33 32 32 31 30 29 30 30 30 29 29 29 29 29 30 29 27 27 28 28 28 28 29 28 27 27 27 27 27 28 29 31 31 32 33 32
38 37 37 38 38 38 38 38 38 37 37 37 37 37 37 37 36 36 36 34 33 33 34 34 35 35 35 35 35 35 35 35 35 34 33 32 31 30 29 29 29 30 34 35 35 33 31 32 31 31 31 30 29 29 29 29 29 29 30 30 29 28 28 26 25 25 27 27 27 28 27 27 28 28 27 27 27 27 28 29 30 31 30 32 33
38 36 37 37 37 38 38 37 37 37 37 36 37 36 35 36 36 35 35 36 35 34 34 35 36 36 36 36 36 35 35 35 35 34 33 32 32 31 30 31 31 33 34 34 34 32 30 30 30 30 30 30 29 28 28 28 27 27 28 29 29 28 28 27 25 25 27 27 27 28 28 28 27 27 27 27 27 28 27 29 30 31 31 31 32
37 36 37 37 37 37 37 37 37 36 36 36 36 35 35 34 34 35 35 36 35 35 35 35 35 35 36 35 36 35 35 34 34 34 33 33 33 32 32 33 33 34 34 30 29 28 27 27 29 29 29 30 28 28 29 27 26 27 28 28 28 29 28 27 27 26 26 27 28 28 28 28 28 28 27 28 27 27 27 29 30 30 30 30 32
36 36 36 36 36 36 37 36 36 36 35 36 36 36 36 34 31 32 33 34 35 35 35 35 35 35 35 35 36 36 35 35 34 34 34 33 32 32 32 32 33 34 34 32 28 27 27 28 28 29 29 29 29 27 28 28 27 27 27 26 27 28 28 26 27 26 26 26 27 27 27 27 28 27 28 27 27 27 27 28 28 30 30 30 30
36 36 35 36 36 35 36 36 36 36 36 36 37 36 36 35 35 32 30 33 34 34 35 35 35 35 35 35 35 34 34 34 34 34 34 33 33 32 33 34 34 34 33 30 27 28 28 29 30 30 30 28 29 30 29 29 28 28 27 28 27 28 28 28 27 26 26 27 27 27 27 28 27 27 27 27 28 28 27 28 27 29 30 31 30
35 35 35 35 35 35 35 36 35 36 36 35 35 35 35 35 33 32 29 28 29 29 32 35 35 35 35 35 34 34 34 34 34 33 33 32 32 32 33 33 34 34 32 30 28 28 30 30 29 29 29 29 29 29 29 28 27 27 27 28 28 28 29 28 26 26 26 26 27 26 27 27 27 27 27 27 27 27 28 27 27 29 29 30 30
35 34 33 34 35 35 35 35 35 36 36 35 35 35 34 34 33 32 30 29 30 30 30 29 32 34 34 34 34 34 33 33 33 34 33 32 32 33 33 31 29 29 31 31 30 30 30 30 29 29 30 30 30 29 29 30 28 28 27 27 28 28 28 27 27 26 27 26 26 26 26 27 27 27 27 27 26 25 25 26 27 27 28 30 30
35 34 35 35 35 35 35 35 35 36 36 36 35 35 34 33 32 31 31 30 30 30 29 30 29 32 33 33 33 34 34 34 34 34 33 33 33 32 29 29 28 28 28 29 29 29 30 29 29 30 30 30 30 30 30 29 29 28 28 27 28 27 28 28 27 27 28 27 26 26 27 27 27 27 27 27 27 27 27 27 27 27 29 29 30
34 34 35 35 35 35 35 36 36 35 34 34 34 33 32 32 31 31 30 30 30 30 29 28 25 28 30 32 34 34 34 34 34 34 34 34 33 32 30 29 28 28 28 28 29 29 29 30 30 30 30 30 30 30 30 30 29 28 29 28 28 28 29 28 27 27 27 25 26 26 26 26 27 27 26 26 26 26 26 26 27 26 27 28 29
34 34 34 35 35 35 36 36 36 33 34 33 33 33 32 31 30 30 29 28 29 29 27 24 28 26 25 26 35 32 32 34 34 33 34 34 31 32 31 30 29 28 27 28 29 30 30 30 30 30 30 31 31 31 30 30 29 28 28 27 27 27 28 29 26 27 25 24 24 25 24 25 27 26 26 26 26 26 25 26 26 25 26 28 28
35 33 33 33 33 35 35 35 35 34 34 33 32 32 31 31 30 29 28 28 28 27 27 25 24 24 23 25 30 33 30 29 29 28 30 31 31 31 30 30 30 29 29 29 30 29 30 30 30 30 30 30 30 30 30 30 29 28 28 28 27 27 27 26 26 26 23 24 24 24 23 24 25 26 26 26 26 26 26 26 26 26 25 26 27
34 34 33 33 34 34 34 34 34 34 33 33 32 32 31 31 30 29 28 27 27 27 26 25 24 24 24 26 28 29 25 25 27 27 27 27 28 28 29 29 29 28 28 28 29 30 30 30 30 31 31 31 30 30 30 30 30 29 28 27 26 26 27 26 25 24 24 24 24 24 24 24 24 25 26 26 26 27 26 26 25 26 26 26 26
34 34 33 33 33 34 34 34 35 35 34 33 32 32 32 31 31 30 29 29 28 28 28 27 25 25 26 27 29 29 25 26 25 26 26 27 27 28 28 28 28 28 28 28 29 29 30 30 30 30 30 30 30 30 30 30 29 28 28 27 26 25 26 26 25 24 24 24 24 24 24 24 24 25 26 26 27 27 26 25 25 25 25 25 26
36 34 34 34 33 34 33 33 35 34 34 34 33 33 32 31 31 31 31 30 30 30 29 29 28 28 29 30 30 31 29 28 29 29 29 29 29 29 29 29 29 29 29 29 29 30 30 30 30 31 30 31 30 30 30 30 29 29 29 28 27 26 26 26 26 25 25 24 24 25 24 24 24 25 26 28 26 26 26 25 25 25 25 25 25
35 34 34 34 34 34 33 33 35 35 34 34 33 32 32 32 31 31 31 31 30 30 30 30 30 29 29 29 30 31 30 29 28 29 29 30 30 30 30 30 31 31 31 31 31 31 31 31 31 31 31 30 31 30 30 30 30 30 29 28 27 27 27 26 26 26 25 24 24 25 25 24 24 24 25 25 26 26 26 26 26 25 25 25 25
35 34 34 34 34 34 34 34 34 34 34 33 34 33 33 32 32 32 31 31 31 31 30 30 30 30 29 29 29 30 30 30 29 29 30 30 31 30 31 31 31 31 31 31 31 31 31 31 31 31 32 31 31 31 30 30 30 30 29 28 27 27 27 27 26 26 26 25 25 25 25 24 24 24 24 25 25 26 26 26 26 26 25 24 24
35 35 34 34 35 34 34 34 34 33 33 33 33 33 33 33 33 32 31 31 31 31 31 30 30 30 30 30 30 30 30 30 30 31 31 31 31 31 31 31 32 31 31 31 31 31 31 31 31 31 31 31 31 31 31 31 31 30 30 30 29 28 28 28 29 28 27 26 26 25 24 23 25 24 24 25 25 26 26 25 25 24 25 25 24
35 35 34 34 34 34 34 35 33 33 32 32 33 33 32 32 33 32 32 31 31 31 31 31 30 30 30 30 30 30 30 30 31 31 31 31 31 31 32 31 31 32 31 31 32 31 31 31 31 30 30 30 31 30 31 32 31 31 31 30 30 30 30 30 30 29 27 27 26 26 25 24 24 24 24 25 25 25 26 26 25 25 24 25 25
36 36 35 35 35 36 37 36 35 35 35 32 32 32 31 31 32 32 31 31 31 31 31 31 31 30 30 30 30 30 30 30 30 30 30 31 31 31 31 31 31 32 31 32 32 31 31 31 30 30 30 31 31 31 31 30 30 30 30 29 29 30 30 30 30 30 29 29 28 26 25 25 25 25 25 25 25 25 26 26 25 26 26 25 24
37 36 36 37 37 38 39 37 36 33 33 32 32 32 31 31 31 31 31 31 31 31 31 31 31 30 30 30 30 30 30 30 30 30 30 31 31 31 31 32 31 31 31 31 31 31 31 31 31 31 31 31 31 31 31 31 31 31 31 30 29 30 29 27 30 30 30 29 28 28 27 26 25 26 25 25 25 25 25 26 26 25 25 25 24
37 37 37 38 38 39 37 35 36 35 33 32 32 32 32 31 31 31 31 31 31 31 31 31 30 30 30 30 30 30 30 30 30 30 29 29 30 30 30 31 31 31 31 31 31 31 31 31 31 31 31 31 31 31 31 31 31 31 31 31 30 28 28 27 27 29 28 30 29 28 28 28 27 27 26 25 25 25 25 26 25 25 25 25 24
38 37 38 38 38 38 37 35 36 34 33 32 32 32 31 31 32 31 31 31 30 30 30 30 30 30 30 30 30 30 30 30 30 30 30 30 30 30 30 30 30 30 30 30 30 30 30 31 31 31 31 31 31 31 31 31 31 31 31 31 29 29 27 27 26 27 27 29 29 29 28 28 28 27 26 27 27 26 26 26 26 25 25 25 25
37 38 38 38 39 39 38 36 35 35 34 32 32 32 32 31 31 31 31 30 30 30 30 30 29 29 29 29 30 30 30 30 30 30 30 30 30 30 30 30 30 30 30 30 30 30 30 31 31 31 31 31 31 31 31 32 31 31 30 30 29 29 28 27 29 27 27 27 30 30 28 28 28 27 27 27 27 26 25 26 26 26 25 25 25